User: anonymous   Login
Location: Unspecified
(0.0000°N, 0.0000°E)
Time: 22:49:52
(UTC+00:00)
Language:

Megsat 1 - Orbit

View from above orbital plane
View from above orbital plane
View from above satellite
View from above satellite

Ground track
Ground track

The orbit data is extracted from the following two-line orbital elements,

1 26545U 00057A   17113.83529571 +.00000302 +00000-0 +52824-4 0  9997
2 26545 064.5544 255.6263 0046017 233.2804 126.4073 14.84735520896286
Epoch (UTC): 23 April 2017 20:02:49
Eccentricity: 0.0046017
inclination: 64.5544°
perigee height: 582 km
apogee height: 646 km
right ascension of ascending node: 255.6263°
argument of perigee: 233.2804°
revolutions per day: 14.84735520
mean anomaly at epoch: 126.4073°
orbit number at epoch: 89628

The dashed part of the orbit path shows where the satellite is in the earth's shadow,  

DLR